Location: Springfield
(37.2150°N, 93.2980°W)
Time: 06:51:34
(UTC-05:00)

Tiangong 2 - Visible Passes

Search period start: 24 April 2019 00:00
Search period end: 04 May 2019 00:00
Orbit: 378 x 390 km, 42.8° (Epoch: 24 April)

Date Brightness Start Highest point End Pass type
(mag) Time Alt. Az. Time Alt. Az. Time Alt. Az.
01 May 3.3 05:11:00 11° S 05:12:59 18° SE 05:15:12 10° E visible
02 May 1.3 05:46:28 10° SW 05:49:35 62° SSE 05:52:44 10° ENE visible
03 May 2.2 04:49:04 28° S 04:49:49 32° SSE 04:52:41 10° E visible
